Location: The Saddle
(36.8333°N, 80.3417°W)
Time: 10:29:46
(UTC-05:00)

S-56A Canister/Altair - Pass Details

Date: 15 December 2023
Orbit: 640 x 2488 km, 38.9° (Epoch: 25 February)

Event Time Altitude Azimuth Distance (km) Brightness Sun altitude
Rises 10:56:13 0° 273° (W) 3,868 10.9 27.0°
Reaches altitude 10° 10:59:19 10° 276° (W) 2,661 10.1 27.2°
Maximum altitude 11:05:17 70° 360° (N) 791 7.8 27.6°
Drops below altitude 10° 11:09:53 10° 85° (E) 2,069 10.0 27.9°
Sets 11:12:02 0° 88° (E) 2,938 10.7 28.0°
